Cartersville, GA

7:21 PM EDT on September 26, 2016 (GMT -0400)
Cartersville

Weather History for KVPC - August, 2014

Change the Weather History Date:

Tuesday, August 12, 2014

  Actual Average Record
Temperature  
Mean Temperature 80 °F 79 °F  
Max Temperature 89 °F 90 °F 97 °F (2010)
Min Temperature 71 °F 68 °F 57 °F (2002)
Cooling Degree Days 15 14  
Month to date cooling degree days 158 168  
Year to date cooling degree days 1042 1024  
Since 1 June cooling degree days 860 875  
Growing Degree Days 30 (Base 50)    
Moisture  
Dew Point 70 °F    
Average Humidity 73    
Maximum Humidity 100    
Minimum Humidity 46    
Precipitation  
Precipitation T in 0.13 in 2.51 in (1991)
Month to date precipitation 1.33 1.82  
Year to date precipitation 27.30 32.48  
Sea Level Pressure  
Sea Level Pressure 29.89 in    
Wind  
Wind Speed 1 mph (West)    
Max Wind Speed 9 mph    
Max Gust Speed 15 mph    
Visibility 9 miles    
Events Rain    
T = Trace of Precipitation, MM = Missing Value Source: NWS Daily Summary

Daily Weather History Graph

Daily Weather History Graph

Search for Another Location

Airport or City:

Trip Planner

Search our weather history database for the weather conditions in past years. The results will help you decide how hot, cold, wet, or windy it might be!

Date:

Astronomy

Aug. 12, 2014 Rise Set
Actual Time 6:58 AM EDT 8:29 PM EDT
Civil Twilight 6:31 AM EDT 8:56 PM EDT
Nautical Twilight 5:59 AM EDT 9:28 PM EDT
Astronomical Twilight 5:26 AM EDT 10:01 PM EDT
Moon 9:46 PM EDT (8/12) 9:06 AM EDT (8/12)
Length of Visible Light 14h 24m
Length of Day
13h 31m
Waning Gibbous, 95% of the Moon is Illuminated
Aug 12
Waning Gibbous
Aug 17
Last Quarter
Aug 25
New
Sep 2
First Quarter
Sep 8
Full

Hourly Weather History & Observations

Time (EDT) Temp. Heat Index Dew Point Humidity Pressure Visibility Wind Dir Wind Speed Gust Speed Precip Events Conditions
12:53 AM 73.0 °F - 71.1 °F 93% 29.93 in 9.0 mi Calm Calm - N/A   Mostly Cloudy
1:53 AM 72.0 °F - 70.0 °F 93% 29.91 in 7.0 mi Calm Calm - N/A   Partly Cloudy
2:53 AM 73.0 °F - 71.1 °F 93% 29.89 in 9.0 mi South 3.5 mph - N/A   Mostly Cloudy
3:53 AM 73.0 °F - 71.1 °F 93% 29.89 in 10.0 mi Calm Calm - N/A   Mostly Cloudy
4:11 AM 73.0 °F - 71.1 °F 93% 29.92 in 9.0 mi Calm Calm - N/A   Mostly Cloudy
4:53 AM 73.0 °F - 71.1 °F 93% 29.88 in 8.0 mi Calm Calm - N/A   Overcast
5:20 AM 73.0 °F - 71.1 °F 93% 29.91 in 8.0 mi Calm Calm - N/A   Overcast
5:50 AM 71.6 °F - 71.6 °F 100% 29.90 in 7.0 mi Calm Calm - N/A   Mostly Cloudy
5:53 AM 72.0 °F - 71.1 °F 97% 29.87 in 7.0 mi Calm Calm - N/A   Mostly Cloudy
6:05 AM 73.0 °F - 71.1 °F 93% 29.91 in 8.0 mi Calm Calm - N/A   Scattered Clouds
6:14 AM 73.0 °F - 71.1 °F 93% 29.91 in 9.0 mi Calm Calm - N/A   Mostly Cloudy
6:41 AM 73.0 °F - 71.1 °F 93% 29.91 in 8.0 mi Calm Calm - N/A   Overcast
6:53 AM 73.0 °F - 71.1 °F 93% 29.88 in 8.0 mi Calm Calm - N/A   Overcast
7:34 AM 73.9 °F - 72.0 °F 93% 29.92 in 7.0 mi Calm Calm - N/A   Overcast
7:42 AM 73.9 °F - 72.0 °F 93% 29.92 in 7.0 mi Calm Calm - N/A   Overcast
7:53 AM 73.9 °F - 72.0 °F 93% 29.88 in 7.0 mi Calm Calm - N/A   Overcast
8:12 AM 73.9 °F - 72.0 °F 93% 29.93 in 7.0 mi Calm Calm - N/A   Overcast
8:33 AM 75.0 °F - 72.0 °F 90% 29.93 in 8.0 mi Calm Calm - N/A   Overcast
8:48 AM 75.2 °F - 71.6 °F 89% 29.93 in 9.0 mi Calm Calm - N/A   Overcast
8:53 AM 75.9 °F - 72.0 °F 87% 29.89 in 9.0 mi Calm Calm - N/A   Overcast
9:18 AM 75.9 °F - 71.1 °F 85% 29.93 in 9.0 mi Calm Calm - N/A   Overcast
9:53 AM 77.0 °F - 71.1 °F 82% 29.91 in 9.0 mi Calm Calm - N/A   Overcast
10:53 AM 80.1 °F 83.6 °F 71.1 °F 74% 29.91 in 10.0 mi Calm Calm - N/A   Overcast
11:25 AM 81.0 °F 84.9 °F 71.1 °F 72% 29.95 in 10.0 mi NNW 5.8 mph - N/A   Scattered Clouds
11:53 AM 81.0 °F 84.9 °F 71.1 °F 72% 29.91 in 10.0 mi Calm Calm - N/A   Mostly Cloudy
1:53 PM 84.0 °F 87.8 °F 69.1 °F 61% 29.88 in 10.0 mi North 3.5 mph - N/A   Scattered Clouds
2:53 PM 87.1 °F 90.6 °F 68.0 °F 53% 29.86 in 10.0 mi SSW 5.8 mph - N/A   Partly Cloudy
3:53 PM 82.9 °F 87.0 °F 70.0 °F 65% 29.85 in 8.0 mi Calm Calm - 0.00 in Rain Light Rain
4:53 PM 86.0 °F 89.4 °F 68.0 °F 55% 29.82 in 10.0 mi Calm Calm - 0.00 in   Mostly Cloudy
5:53 PM 88.0 °F 89.6 °F 64.9 °F 46% 29.82 in 10.0 mi Calm Calm - N/A   Scattered Clouds
6:53 PM 86.0 °F 88.2 °F 66.0 °F 51% 29.83 in 10.0 mi Variable 3.5 mph - N/A   Mostly Cloudy
7:53 PM 80.1 °F 81.9 °F 64.9 °F 60% 29.85 in 10.0 mi Calm Calm - 0.00 in   Mostly Cloudy
8:53 PM 77.0 °F - 66.0 °F 69% 29.86 in 10.0 mi Calm Calm - N/A   Mostly Cloudy
9:53 PM 75.0 °F - 66.9 °F 76% 29.89 in 10.0 mi Calm Calm - N/A   Overcast
10:53 PM 73.9 °F - 66.0 °F 76% 29.90 in 10.0 mi Calm Calm - N/A   Overcast
11:53 PM 72.0 °F - 68.0 °F 87% 29.91 in 10.0 mi Calm Calm - N/A   Mostly Cloudy